Overview Statistics Trail Chart Weather Telemetry Raw packets
 

This is the latest recevied weather packets stored in our database for station/object W0CHP-13. If no packets are shown the sender has not sent any weather packets the latest 10 day(s).

<< 49 50 51 52 53 54 55 >>
Time Temp. Humidity Pressure Rain* Wind** Luminosity Snow
1787942597 28.33° C 40% 1018.1 hPa 0 mm - 695 W/m² -
1787941998 27.78° C 41% 1018.5 hPa 0 mm - 704 W/m² -
1787941396 27.78° C 42% 1018.5 hPa 0 mm - 668 W/m² -
1787940797 27.22° C 42% 1018.5 hPa 0 mm - 715 W/m² -
1787940195 27.78° C 43% 1018.6 hPa 0 mm - 726 W/m² -
1787939597 26.67° C 43% 1018.5 hPa 0 mm - 721 W/m² -
1787938996 26.11° C 46% 1018.6 hPa 0 mm - 718 W/m² -
1787938398 26.11° C 46% 1018.9 hPa 0 mm - 231 W/m² -
1787937795 26.11° C 52% 1019 hPa 0 mm - 339 W/m² -
1787937198 26.11° C 50% 1019.2 hPa 0 mm - 166 W/m² -
1787936595 26.11° C 51% 1019.2 hPa 0 mm - 715 W/m² -
1787935998 26.11° C 55% 1019.2 hPa 0 mm - 702 W/m² -
1787935397 25.56° C 54% 1019.3 hPa 0 mm - 663 W/m² -
1787934798 25.56° C 58% 1019.3 hPa 0 mm - 635 W/m² -
1787934197 25° C 58% 1019.6 hPa 0 mm - 617 W/m² -
1787933598 25° C 61% 1019.5 hPa 0 mm - 596 W/m² -
1787932996 24.44° C 60% 1019.6 hPa 0 mm - 573 W/m² -
1787932399 23.89° C 63% 1019.6 hPa 0 mm - 553 W/m² -
1787931797 23.89° C 64% 1019.6 hPa 0 mm - 531 W/m² -
1787931196 23.33° C 64% 1019.6 hPa 0 mm - 509 W/m² -
1787930598 22.22° C 66% 1019.5 hPa 0 mm - 484 W/m² -
1787929997 22.22° C 68% 1019.6 hPa 0 mm - 461 W/m² -
1787929396 21.67° C 68% 1019.3 hPa 0 mm - 434 W/m² -
1787928798 20.56° C 71% 1019.2 hPa 0 mm - 406 W/m² -
1787928195 20° C 73% 1019.3 hPa 0 mm - 378 W/m² -

* Rain latest hour (hover to see other rain measurements)
** Current wind speed in m/s (hover to see current wind gust speed)